K3HW Weather Reports


time (UTC)temp
C
wind
direction
speed
KPH
gust
KPH
rain 1hr
cm
rain 24hr
cm
rain mn
cm
humidity
%
barometer
mb
20260506180531 16 45 0.0 0.0 0.00 0.51 0.51 84 1011.6
20260506180028 16 96 0.0 0.0 0.00 0.51 0.51 84 1011.6
20260506175525 16 253 0.0 0.0 0.00 0.51 0.51 84 1011.6
20260506175021 16 324 0.0 0.0 0.00 0.51 0.51 84 1011.6
20260506174520 16 243 0.0 0.0 0.00 0.51 0.51 84 1011.7
20260506174015 16 42 0.0 0.0 0.00 0.51 0.51 85 1011.6
20260506173513 16 82 0.0 0.0 0.00 0.51 0.51 85 1011.6
20260506173010 16 144 0.0 0.0 0.00 0.51 0.51 86 1011.4
20260506172508 16 67 0.0 0.0 0.00 0.51 0.51 86 1011.6
20260506172003 16 172 0.0 0.0 0.00 0.51 0.51 86 1011.7
20260506171501 16 301 0.0 0.0 0.00 0.51 0.51 86 1012.0
20260506170959 16 33 0.0 0.0 0.00 0.51 0.51 86 1011.9
20260506170455 16 243 0.0 0.0 0.00 0.51 0.51 86 1011.8
20260506165954 16 41 0.0 0.0 0.00 0.51 0.51 87 1011.9
20260506165452 16 339 0.0 0.0 0.00 0.51 0.51 87 1011.8
20260506164947 16 318 0.0 0.0 0.00 0.51 0.51 87 1012.0
20260506164444 16 116 0.0 0.0 0.00 0.51 0.51 88 1011.8
20260506163942 16 199 0.0 0.0 0.00 0.51 0.51 88 1011.9
20260506163437 16 42 0.0 0.0 0.13 0.51 0.51 88 1011.6
20260506162932 16 53 0.0 0.0 0.13 0.51 0.51 88 1011.9
20260506162430 16 79 0.0 0.0 0.00 0.48 0.48 89 1011.6
20260506161927 16 49 0.0 0.0 0.00 0.48 0.48 89 1011.8
20260506161426 16 102 0.0 0.0 0.18 0.48 0.48 89 1012.1
20260506160922 16 42 0.0 0.0 0.18 0.48 0.48 89 1012.5
20260506160420 16 50 0.0 0.0 0.13 0.46 0.46 89 1012.6
20260506155917 16 139 0.0 0.0 0.13 0.46 0.46 89 1012.9
20260506155414 16 50 0.0 0.0 0.30 0.46 0.46 89 1013.0
20260506153531 16 56 0.0 0.0 0.48 0.28 0.28 87 1013.0
20260506153028 16 11 0.0 0.0 0.48 0.25 0.25 86 1013.0
20260506152525 16 345 0.0 0.0 0.30 0.20 0.20 85 1012.8
20260506152023 16 59 0.0 0.0 0.30 0.18 0.18 85 1012.7
20260506151521 16 35 0.0 0.0 0.30 0.15 0.15 85 1013.1
20260506151018 16 300 0.0 0.0 0.13 0.13 0.13 84 1013.1
20260506150514 16 23 0.0 0.0 0.13 0.13 0.13 84 1013.0
20260506150011 16 33 0.0 0.0 0.00 0.10 0.10 84 1012.9
20260506145507 17 33 0.0 0.0 0.18 0.10 0.10 85 1012.9
20260506145005 17 33 0.0 0.0 0.30 0.10 0.10 84 1012.9
20260506144502 16 42 0.0 0.0 0.13 0.08 0.08 83 1012.9
20260506143959 17 171 0.0 0.0 0.30 0.08 0.08 82 1012.9
20260506143456 17 38 0.0 0.0 0.30 0.05 0.05 82 1012.9
20260506142955 17 47 0.0 0.0 0.13 0.03 0.03 81 1012.9
20260506142452 17 47 0.0 0.0 0.00 0.00 0.00 77 1012.9
20260506141950 17 69 0.0 0.0 0.00 0.00 0.00 75 1012.9
20260506141448 18 269 0.0 0.0 0.00 0.00 0.00 74 1013.0
20260506140946 18 281 0.0 0.0 0.00 0.00 0.00 74 1012.8
20260506140443 18 197 0.0 0.0 0.00 0.00 0.00 71 1013.0
20260506135939 18 207 0.0 0.0 0.00 0.00 0.00 69 1012.5
20260506135437 19 22 0.0 0.0 0.00 0.00 0.00 70 1012.6
20260506134933 19 315 0.0 0.0 0.00 0.00 0.00 69 1012.6
20260506134429 20 351 0.0 0.0 0.00 0.00 0.00 68 1012.6
20260506133926 19 77 0.0 0.0 0.00 0.00 0.00 69 1012.6
20260506133423 19 32 0.0 0.0 0.00 0.00 0.00 69 1012.6
20260506132920 18 40 0.0 0.0 0.00 0.00 0.00 70 1012.9
20260506132417 18 23 0.0 0.0 0.00 0.00 0.00 70 1012.8
20260506131914 18 177 0.0 0.0 0.00 0.00 0.00 69 1012.8
20260506131411 18 167 0.0 0.0 0.00 0.00 0.00 70 1012.8
20260506130908 18 113 0.0 0.0 0.00 0.00 0.00 70 1012.8
20260506130404 18 70 0.0 0.0 0.00 0.00 0.00 69 1012.8
20260506125902 18 147 0.0 0.0 0.00 0.00 0.00 68 1013.1
20260506125401 18 345 0.0 0.0 0.00 0.00 0.00 69 1013.1
20260506124858 19 156 0.0 0.0 0.00 0.00 0.00 68 1013.0
20260506124355 19 193 0.0 0.0 0.00 0.00 0.00 68 1012.9
20260506123853 19 168 0.0 0.0 0.00 0.00 0.00 68 1013.1
20260506123351 18 23 0.0 0.0 0.00 0.00 0.00 68 1012.9
20260506122848 18 120 0.0 0.0 0.00 0.00 0.00 69 1012.9
20260506122345 18 55 0.0 0.0 0.00 0.00 0.00 69 1012.9
20260506121843 18 44 0.0 0.0 0.00 0.00 0.00 69 1012.9
20260506121340 18 271 0.0 0.0 0.00 0.00 0.00 69 1012.8
20260506120837 18 231 0.0 0.0 0.00 0.00 0.00 69 1012.8
20260506120334 18 347 0.0 0.0 0.00 0.00 0.00 70 1012.9
20260506115832 18 39 0.0 0.0 0.00 0.00 0.00 71 1012.7
20260506115330 18 49 0.0 0.0 0.00 0.00 0.00 70 1012.8
20260506114827 18 43 0.0 0.0 0.00 0.00 0.00 71 1012.7
20260506114325 18 41 0.0 0.0 0.00 0.00 0.00 71 1012.7
20260506113823 18 79 0.0 0.0 0.00 0.00 0.00 71 1012.6
20260506113321 18 58 0.0 0.0 0.00 0.00 0.00 71 1012.7
20260506112817 18 67 0.0 0.0 0.00 0.00 0.00 71 1012.5
20260506112314 18 98 0.0 0.0 0.00 0.00 0.00 71 1012.7
20260506111812 18 43 0.0 0.0 0.00 0.00 0.00 72 1012.9
20260506111309 18 36 0.0 0.0 0.00 0.00 0.00 71 1012.6
20260506110807 18 215 0.0 0.0 0.00 0.00 0.00 71 1012.7
20260506110304 18 45 0.0 0.0 0.00 0.00 0.00 72 1012.5
20260506105800 18 55 0.0 0.0 0.00 0.00 0.00 71 1012.5
20260506105257 18 79 0.0 0.0 0.00 0.00 0.00 72 1012.5
20260506104755 18 112 0.0 0.0 0.00 0.00 0.00 71 1012.4
20260506104252 18 110 0.0 0.0 0.00 0.00 0.00 72 1012.2
20260506103750 18 152 0.0 0.0 0.00 0.00 0.00 71 1012.5
20260506103247 18 89 0.0 0.0 0.00 0.00 0.00 71 1012.3
20260506102744 18 50 0.0 0.0 0.00 0.00 0.00 71 1012.6
20260506102242 18 85 0.0 0.0 0.00 0.00 0.00 71 1012.3
20260506101739 18 61 0.0 0.0 0.00 0.00 0.00 71 1012.1
20260506101235 18 144 0.0 0.0 0.00 0.00 0.00 71 1012.4
20260506100734 18 60 0.0 0.0 0.00 0.00 0.00 72 1012.1
20260506100231 18 51 0.0 0.0 0.00 0.00 0.00 71 1012.4
20260506095730 18 58 0.0 0.0 0.00 0.00 0.00 71 1012.5
20260506095226 18 88 0.0 0.0 0.00 0.00 0.00 71 1012.6
20260506094723 18 47 0.0 0.0 0.00 0.00 0.00 71 1012.5
20260506094221 18 34 0.0 0.0 0.00 0.00 0.00 71 1012.4
20260506093720 18 102 0.0 0.0 0.00 0.00 0.00 71 1012.4
20260506093216 18 42 0.0 0.0 0.00 0.00 0.00 70 1012.2
20260506092714 18 46 0.0 0.0 0.00 0.00 0.00 70 1012.5
20260506092211 18 57 0.0 0.0 0.00 0.00 0.00 70 1012.4
20260506091709 18 71 0.0 0.0 0.00 0.00 0.00 69 1012.4
20260506091206 18 96 0.0 0.0 0.00 0.00 0.00 69 1012.3
20260506090704 18 42 0.0 0.0 0.00 0.00 0.00 68 1012.3
20260506090200 19 52 0.0 0.0 0.00 0.00 0.00 68 1012.3
20260506085658 19 56 0.0 0.0 0.00 0.00 0.00 67 1012.3
20260506085153 19 50 0.0 0.0 0.00 0.00 0.00 67 1012.2
20260506084650 19 29 0.0 0.0 0.00 0.00 0.00 67 1012.4
20260506084147 19 51 0.0 0.0 0.00 0.00 0.00 67 1012.4
20260506083644 19 34 0.0 0.0 0.00 0.00 0.00 67 1012.3
20260506083142 19 79 0.0 0.0 0.00 0.00 0.00 67 1012.8
20260506082639 19 51 0.0 0.0 0.00 0.00 0.00 66 1012.4
20260506082134 19 269 0.0 0.0 0.00 0.00 0.00 67 1012.5
20260506081632 19 248 0.0 0.0 0.00 0.00 0.00 67 1012.3
20260506081130 19 43 0.0 0.0 0.00 0.00 0.00 67 1012.4
20260506080627 19 105 0.0 0.0 0.00 0.00 0.00 67 1012.6
20260506080123 19 50 0.0 0.0 0.00 0.00 0.00 67 1012.5
20260506073107 19 32 0.0 0.0 0.00 0.00 0.00 66 1012.8
20260506072604 19 46 0.0 0.0 0.00 0.00 0.00 66 1012.8
20260506072102 19 48 0.0 0.0 0.00 0.00 0.00 66 1012.8
20260506071559 19 153 0.0 0.0 0.00 0.00 0.00 66 1012.7
20260506071057 19 82 0.0 0.0 0.00 0.00 0.00 66 1012.8
20260506070554 19 44 0.0 0.0 0.00 0.00 0.00 65 1012.9
20260506062028 20 62 0.0 0.0 0.00 0.00 0.00 63 1013.4
20260506061529 20 95 0.0 0.0 0.00 0.00 0.00 63 1013.4
20260506061027 20 65 0.0 0.0 0.00 0.00 0.00 63 1013.3
20260506060525 20 90 0.0 0.0 0.00 0.00 0.00 63 1013.4
20260506050954 20 33 0.0 0.0 0.00 0.00 0.00 62 1013.9
20260506050452 20 11 0.0 0.0 0.00 0.00 0.00 61 1013.6
20260506044942 20 72 0.0 0.0 0.00 0.00 0.00 61 1013.7
20260506044440 20 52 0.0 0.0 0.00 0.00 0.00 61 1013.9
20260506043936 20 44 0.0 0.0 0.00 0.00 0.00 61 1013.9
20260506043434 20 96 0.0 0.0 0.00 0.00 0.00 61 1014.0
20260506042932 20 67 0.0 0.0 0.00 0.00 0.00 61 1013.9
20260506042431 20 42 0.0 0.0 0.00 0.00 0.00 61 1014.0
20260506041929 20 39 0.0 0.0 0.00 0.00 0.00 61 1013.9
20260506041426 20 131 0.0 0.0 0.00 0.00 0.00 61 1013.7
20260506040923 20 34 0.0 0.0 0.00 0.00 0.00 61 1013.7
20260506040421 20 236 0.0 0.0 0.00 0.00 0.00 60 1013.6
20260506035916 20 39 0.0 0.0 0.00 0.00 0.00 60 1013.6
20260506035414 20 39 0.0 0.0 0.00 0.00 0.00 60 1013.9
20260506034911 20 12 0.0 0.0 0.00 0.00 0.00 60 1013.4
20260506034408 20 178 0.0 0.0 0.00 0.00 0.00 60 1013.7
20260506033905 20 65 0.0 0.0 0.00 0.00 0.00 60 1013.5
20260506033402 20 43 0.0 0.0 0.00 0.00 0.00 60 1013.5
20260506032859 20 88 0.0 0.0 0.00 0.00 0.00 60 1013.5
20260506032356 20 64 0.0 0.0 0.00 0.00 0.00 59 1013.4
20260506031852 20 49 0.0 0.0 0.00 0.00 0.00 59 1013.5
20260506031350 20 41 0.0 0.0 0.00 0.00 0.00 59 1013.6
20260506030848 21 50 0.0 0.0 0.00 0.00 0.00 58 1013.6
20260506030346 21 44 0.0 0.0 0.00 0.00 0.00 56 1013.5
20260506025842 21 44 0.0 0.0 0.00 0.00 0.00 55 1013.4
20260506025338 21 107 0.0 0.0 0.00 0.00 0.00 55 1013.5
20260506024835 21 55 0.0 0.0 0.00 0.00 0.00 54 1013.5
20260506024332 21 111 0.0 0.0 0.00 0.00 0.00 54 1013.7
20260506023828 21 50 0.0 0.0 0.00 0.00 0.00 53 1013.6
20260506023325 21 75 0.0 0.0 0.00 0.00 0.00 53 1013.4
20260506022822 21 84 0.0 0.0 0.00 0.00 0.00 53 1013.5
20260506022320 22 170 0.0 0.0 0.00 0.00 0.00 52 1013.6
20260506021818 22 60 0.0 0.0 0.00 0.00 0.00 52 1013.5
20260506021314 22 157 0.0 0.0 0.00 0.00 0.00 52 1013.4
20260506020811 22 43 0.0 0.0 0.00 0.00 0.00 52 1013.5
20260506020309 22 88 0.0 0.0 0.00 0.00 0.00 51 1013.5
20260506015807 22 68 0.0 0.0 0.00 0.00 0.00 51 1013.4
20260506015306 22 56 0.0 0.0 0.00 0.00 0.00 50 1013.4
20260506014800 22 89 0.0 0.0 0.00 0.00 0.00 50 1013.4
20260506014257 22 95 0.0 0.0 0.00 0.00 0.00 49 1013.3
20260506013754 22 70 0.0 0.0 0.00 0.00 0.00 48 1013.3
20260506013251 22 208 0.0 0.0 0.00 0.00 0.00 48 1013.3
20260506012748 23 24 0.0 0.0 0.00 0.00 0.00 48 1013.3
20260506012244 23 15 0.0 0.0 0.00 0.00 0.00 47 1013.3
20260506011742 23 75 0.0 0.0 0.00 0.00 0.00 47 1013.1
20260506011238 23 74 0.0 0.0 0.00 0.00 0.00 46 1013.2
20260506010737 23 49 0.0 0.0 0.00 0.00 0.00 46 1013.1
20260506010233 23 256 0.0 0.0 0.00 0.00 0.00 46 1013.1
20260506005731 23 79 0.0 0.0 0.00 0.00 0.00 47 1013.0
20260506005227 23 60 0.0 0.0 0.00 0.00 0.00 47 1012.8
20260506004723 23 35 0.0 0.0 0.00 0.00 0.00 46 1012.8
20260506004221 23 306 0.0 0.0 0.00 0.00 0.00 46 1012.9
20260506003717 23 116 0.0 0.0 0.00 0.00 0.00 45 1013.0
20260506003213 23 85 0.0 0.0 0.00 0.00 0.00 47 1012.5
20260506002709 23 118 0.0 0.0 0.00 0.00 0.00 45 1012.9
20260506002206 24 109 0.0 0.0 0.00 0.00 0.00 45 1012.6
20260506001702 23 45 0.0 0.0 0.00 0.00 0.00 44 1012.6
20260506001159 24 44 0.0 0.0 0.00 0.00 0.00 43 1012.4
20260506000656 25 64 0.0 0.0 0.00 0.00 0.00 41 1012.7
20260506000153 25 25 0.0 0.0 0.00 0.00 0.00 40 1012.4
20260505235652 25 82 0.0 0.0 0.00 0.00 0.00 42 1012.4
20260505235149 25 21 0.0 0.0 0.00 0.00 0.00 41 1012.5
20260505234645 25 147 0.0 0.0 0.00 0.00 0.00 41 1012.3
20260505234142 25 269 0.0 0.0 0.00 0.00 0.00 40 1012.2
20260505233639 25 56 0.0 0.0 0.00 0.00 0.00 41 1012.4
20260505233137 25 257 0.0 0.0 0.00 0.00 0.00 41 1012.4
20260505232634 25 140 0.0 0.0 0.00 0.00 0.00 40 1012.2
20260505232132 25 57 0.0 0.0 0.00 0.00 0.00 40 1012.3
20260505231628 25 6 0.0 0.0 0.00 0.00 0.00 40 1012.4
20260505231127 25 46 0.0 0.0 0.00 0.00 0.00 39 1012.3
20260505230625 25 182 0.0 0.0 0.00 0.00 0.00 39 1012.3
20260505230120 25 200 0.0 0.0 0.00 0.00 0.00 39 1012.2
20260505225617 25 48 0.0 0.0 0.00 0.00 0.00 39 1012.3
20260505225113 26 40 0.0 0.0 0.00 0.00 0.00 39 1012.3
20260505224610 26 211 0.0 0.0 0.00 0.00 0.00 38 1012.2
20260505224108 26 101 0.0 0.0 0.00 0.00 0.00 37 1012.4
20260505223605 26 22 0.0 0.0 0.00 0.00 0.00 38 1012.4
20260505223101 26 245 0.0 0.0 0.00 0.00 0.00 37 1012.1
20260505222557 26 12 0.0 0.0 0.00 0.00 0.00 37 1012.2
20260505222053 26 121 0.0 0.0 0.00 0.00 0.00 36 1012.0
20260505221551 27 179 0.0 0.0 0.00 0.00 0.00 36 1012.2
20260505221047 27 227 0.0 0.0 0.00 0.00 0.00 36 1012.2
20260505220544 27 7 0.0 0.0 0.00 0.00 0.00 36 1012.2
20260505220042 27 60 0.0 0.0 0.00 0.00 0.00 37 1012.0
20260505215540 27 255 0.0 0.0 0.00 0.00 0.00 35 1012.1
20260505215038 27 267 0.0 0.0 0.00 0.00 0.00 35 1011.9
20260505214536 27 257 0.0 0.0 0.00 0.00 0.00 36 1012.1
20260505214032 27 155 0.0 0.0 0.00 0.00 0.00 34 1012.2
20260505213530 27 19 0.0 0.0 0.00 0.00 0.00 35 1012.1
20260505213026 27 122 0.0 0.0 0.00 0.00 0.00 34 1012.1
20260505212522 27 167 0.0 0.0 0.00 0.00 0.00 36 1011.9
20260505212020 27 145 4.8 6.4 0.00 0.00 0.00 34 1012.1
20260505211517 27 117 6.4 11.3 0.00 0.00 0.00 34 1012.2
20260505211014 27 355 3.2 4.8 0.00 0.00 0.00 34 1011.8
20260505210510 27 56 3.2 4.8 0.00 0.00 0.00 33 1011.9
20260505210008 27 254 9.7 11.3 0.00 0.00 0.00 32 1012.2
20260505205506 27 296 4.8 9.7 0.00 0.00 0.00 33 1012.1
20260505205002 27 32 11.3 17.7 0.00 0.00 0.00 33 1012.1
20260505204500 27 77 8.0 11.3 0.00 0.00 0.00 33 1012.1
20260505203957 27 221 4.8 6.4 0.00 0.00 0.00 34 1012.0
20260505203453 27 194 3.2 3.2 0.00 0.00 0.00 35 1012.2
20260505202950 27 87 6.4 6.4 0.00 0.00 0.00 35 1012.0
20260505202447 27 110 1.6 1.6 0.00 0.00 0.00 35 1012.0
20260505201942 27 201 6.4 9.7 0.00 0.00 0.00 33 1012.1
20260505201440 27 56 4.8 4.8 0.00 0.00 0.00 34 1012.2
20260505200937 27 113 1.6 3.2 0.00 0.00 0.00 35 1012.4
20260505200435 27 232 9.7 16.1 0.00 0.00 0.00 34 1012.2
20260505195930 27 219 6.4 6.4 0.00 0.00 0.00 34 1012.3
20260505195428 27 155 6.4 6.4 0.00 0.00 0.00 35 1012.4
20260505194925 27 267 6.4 11.3 0.00 0.00 0.00 34 1012.3
20260505194422 27 204 8.0 11.3 0.00 0.00 0.00 34 1012.4
20260505193922 27 148 4.8 6.4 0.00 0.00 0.00 33 1012.4
20260505193420 27 239 8.0 14.5 0.00 0.00 0.00 33 1012.5
20260505192918 27 284 3.2 6.4 0.00 0.00 0.00 34 1012.4
20260505192416 27 176 8.0 11.3 0.00 0.00 0.00 32 1012.6
20260505191913 27 177 12.9 17.7 0.00 0.00 0.00 31 1012.6
20260505191412 27 186 4.8 9.7 0.00 0.00 0.00 32 1012.8
20260505190908 27 13 4.8 4.8 0.00 0.00 0.00 35 1012.6
20260505190403 27 173 8.0 12.9 0.00 0.00 0.00 33 1012.6
20260505185859 27 319 6.4 9.7 0.00 0.00 0.00 38 1012.8
20260505185356 27 196 12.9 16.1 0.00 0.00 0.00 32 1013.0
20260505184852 27 194 8.0 11.3 0.00 0.00 0.00 36 1013.1
20260505184349 27 7 6.4 6.4 0.00 0.00 0.00 36 1013.1
20260505183846 27 138 4.8 4.8 0.00 0.00 0.00 34 1013.1
20260505183343 27 229 6.4 11.3 0.00 0.00 0.00 38 1013.2
20260505182840 27 301 6.4 9.7 0.00 0.00 0.00 35 1013.2
20260505182337 27 217 6.4 11.3 0.00 0.00 0.00 34 1013.0
20260505181833 27 226 3.2 6.4 0.00 0.00 0.00 38 1013.0
20260505181331 27 227 3.2 3.2 0.00 0.00 0.00 36 1013.4
20260505180827 27 295 9.7 12.9 0.00 0.00 0.00 36 1013.3